Lamoni, IA

9:50 AM CDT on October 21, 2017 (GMT -0500)
Lamoni Municipal

Weather History for KLWD - February, 2012

Change the Weather History Date:

Tuesday, February 7, 2012

  Actual Average Record
Temperature  
Mean Temperature 32 °F 26 °F  
Max Temperature 34 °F 36 °F 62 °F (2009)
Min Temperature 29 °F 17 °F -10 °F (1979)
Degree Days  
Heating Degree Days 33 39  
Month to date heating degree days 202 276  
Since 1 July heating degree days 3409 3968  
Cooling Degree Days 0 0  
Month to date cooling degree days 0 0  
Year to date cooling degree days 0 0  
Moisture  
Dew Point 28 °F    
Average Humidity 88    
Maximum Humidity 100    
Minimum Humidity 75    
Precipitation  
Precipitation 0.02 in 0.05 in 0.45 in (1999)
Month to date precipitation 0.90 0.32  
Year to date precipitation 1.16  
Sea Level Pressure  
Sea Level Pressure 30.33 in    
Wind  
Wind Speed 9 mph (NNE)    
Max Wind Speed 16 mph    
Max Gust Speed 20 mph    
Visibility 4 miles    
Events Rain , Snow    
T = Trace of Precipitation, MM = Missing Value Source: NWS Daily Summary

Daily Weather History Graph

Daily Weather History Graph

Search for Another Location

Airport or City:

Trip Planner

Search our weather history database for the weather conditions in past years. The results will help you decide how hot, cold, wet, or windy it might be!

Date:

Astronomy

Feb. 07, 2012 Rise Set
Actual Time 7:19 AM CST 5:40 PM CST
Civil Twilight 6:51 AM CST 6:08 PM CST
Nautical Twilight 6:18 AM CST 6:41 PM CST
Astronomical Twilight 5:46 AM CST 7:13 PM CST
Moon 5:52 PM CST (2/7) 6:48 AM CST (2/7)
Length of Visible Light 11h 17m
Length of Day
10h 20m
Full, 100% of the Moon is Illuminated
Feb 7
Full
Feb 7
Full
Feb 14
Last Quarter
Feb 21
New
Feb 29
First Quarter

Hourly Weather History & Observations

Time (CST) Temp. Windchill Dew Point Humidity Pressure Visibility Wind Dir Wind Speed Gust Speed Precip Events Conditions
12:53 AM 32.0 °F 26.4 °F 27.0 °F 82% 30.21 in 10.0 mi West 5.8 mph - N/A   Clear
1:53 AM 32.0 °F 26.4 °F 27.0 °F 82% 30.22 in 10.0 mi WNW 5.8 mph - N/A   Clear
2:53 AM 30.9 °F 24.3 °F 27.0 °F 85% 30.22 in 8.0 mi NW 6.9 mph - N/A   Partly Cloudy
3:53 AM 30.9 °F 25.2 °F 26.1 °F 82% 30.22 in 6.0 mi NW 5.8 mph - N/A   Haze
4:53 AM 30.9 °F 25.2 °F 26.1 °F 82% 30.23 in 6.0 mi NNW 5.8 mph - N/A   Haze
5:53 AM 30.0 °F 21.7 °F 27.0 °F 88% 30.24 in 5.0 mi North 9.2 mph - N/A   Overcast
6:53 AM 30.0 °F 21.1 °F 27.0 °F 88% 30.26 in 5.0 mi NNE 10.4 mph - N/A   Overcast
7:53 AM 30.0 °F 21.1 °F 27.0 °F 88% 30.28 in 3.0 mi NNE 10.4 mph - N/A   Scattered Clouds
8:19 AM 30.2 °F 22.6 °F 28.4 °F 93% 30.26 in 3.0 mi NE 8.1 mph - N/A   Mostly Cloudy
8:53 AM 30.9 °F 23.5 °F 28.0 °F 89% 30.32 in 3.0 mi NNE 8.1 mph - N/A   Overcast
9:34 AM 30.2 °F 21.9 °F 26.6 °F 86% 30.29 in 3.0 mi NNE 9.2 mph - N/A   Overcast
9:53 AM 30.9 °F 23.5 °F 27.0 °F 85% 30.34 in 3.0 mi NNE 8.1 mph - N/A   Overcast
10:01 AM 30.2 °F 21.3 °F 26.6 °F 86% 30.30 in 2.5 mi NNE 10.4 mph - N/A   Overcast
10:13 AM 30.2 °F 22.6 °F 26.6 °F 86% 30.31 in 1.2 mi NNE 8.1 mph - 0.00 in Snow Light Snow
10:20 AM 30.2 °F 21.9 °F 28.4 °F 93% 30.31 in 0.8 mi NE 9.2 mph - 0.01 in Snow Light Snow
10:31 AM 30.2 °F 22.6 °F 28.4 °F 93% 30.31 in 1.0 mi NNE 8.1 mph - 0.01 in Snow Light Snow
10:53 AM 30.9 °F 22.8 °F 28.0 °F 89% 30.36 in 1.2 mi NE 9.2 mph - 0.01 in Snow Light Snow
11:53 AM 32.0 °F 24.2 °F 28.9 °F 88% 30.36 in 1.2 mi NE 9.2 mph - 0.01 in Snow Light Snow
12:13 PM 32.0 °F 24.8 °F 30.2 °F 93% 30.33 in 2.5 mi NNE 8.1 mph - 0.00 in   Overcast
12:23 PM 33.8 °F 26.4 °F 28.4 °F 81% 30.32 in 3.0 mi NNE 9.2 mph - 0.00 in   Overcast
12:53 PM 33.1 °F 26.1 °F 30.0 °F 89% 30.36 in 4.0 mi NNE 8.1 mph - 0.00 in   Overcast
1:11 PM 33.8 °F 26.4 °F 30.2 °F 87% 30.32 in 4.0 mi NNE 9.2 mph - N/A   Overcast
1:53 PM 34.0 °F 26.6 °F 30.0 °F 85% 30.36 in 5.0 mi North 9.2 mph - N/A   Overcast
2:53 PM 33.1 °F 24.4 °F 28.9 °F 85% 30.38 in 6.0 mi NNE 11.5 mph - N/A   Overcast
3:53 PM 32.0 °F 23.0 °F 28.9 °F 88% 30.39 in 5.0 mi North 11.5 mph - N/A   Overcast
4:31 PM 32.0 °F 23.6 °F 28.4 °F 87% 30.35 in 3.0 mi North 10.4 mph - N/A   Overcast
4:53 PM 32.0 °F 23.6 °F 30.0 °F 92% 30.39 in 3.0 mi NNE 10.4 mph - N/A   Overcast
5:53 PM 32.0 °F 24.2 °F 30.0 °F 92% 30.40 in 8.0 mi NNE 9.2 mph - N/A   Overcast
6:53 PM 32.0 °F 24.8 °F 30.0 °F 92% 30.41 in 6.0 mi NNE 8.1 mph - N/A   Overcast
7:53 PM 30.9 °F 21.7 °F 30.0 °F 96% 30.43 in 5.0 mi NNE 11.5 mph - 0.00 in Rain Light Freezing Rain
7:59 PM 30.2 °F 20.2 °F 28.4 °F 93% 30.38 in 2.5 mi NNE 12.7 mph 19.6 mph 0.00 in Snow Light Snow
8:12 PM 30.2 °F 20.2 °F 28.4 °F 93% 30.39 in 5.0 mi NNE 12.7 mph 19.6 mph 0.00 in   Overcast
8:53 PM 30.9 °F 22.2 °F 28.9 °F 92% 30.45 in 10.0 mi NNE 10.4 mph - 0.00 in   Overcast
9:53 PM 30.0 °F 21.1 °F 28.0 °F 92% 30.46 in 7.0 mi NNE 10.4 mph - 0.00 in   Overcast
10:53 PM 28.9 °F 19.8 °F 28.0 °F 96% 30.47 in 5.0 mi North 10.4 mph - N/A   Overcast
11:53 PM 28.9 °F 19.2 °F 27.0 °F 92% 30.47 in 10.0 mi NNE 11.5 mph - N/A   Overcast